Time,TemperatureF,DewpointF,PressureIn,WindDirection,WindDirectionDegrees,WindSpeedMPH,WindSpeedGustMPH,Humidity,HourlyPrecipIn,Conditions,Clouds,dailyrainin,SoftwareType,DateUTC
2013-04-08 00:00:00,55.6,41.1,29.99,West,266,2.0,12.0,58,0.00,,,0.00,VWS V14.01,2013-04-08 04:00:00,
2013-04-08 00:01:00,55.8,41.3,29.99,West,269,5.0,10.0,58,0.00,,,0.00,VWS V14.01,2013-04-08 04:01:00,
2013-04-08 00:06:00,55.8,41.3,29.99,WSW,255,8.0,10.0,58,0.00,,,0.00,VWS V14.01,2013-04-08 04:06:00,
2013-04-08 00:11:00,55.8,41.7,29.99,SW,217,8.0,15.0,59,0.00,,,0.00,VWS V14.01,2013-04-08 04:11:00,
2013-04-08 00:15:00,55.8,41.7,29.99,WSW,254,5.0,15.0,59,0.00,,,0.00,VWS V14.01,2013-04-08 04:15:00,
2013-04-08 00:17:00,55.8,41.7,29.99,West,265,10.0,11.0,59,0.00,,,0.00,VWS V14.01,2013-04-08 04:17:00,
2013-04-08 00:22:00,55.6,41.5,29.99,WSW,246,6.0,11.0,59,0.00,,,0.00,VWS V14.01,2013-04-08 04:22:00,
2013-04-08 00:27:00,55.5,41.4,29.99,West,260,6.0,11.0,59,0.00,,,0.00,VWS V14.01,2013-04-08 04:27:00,
2013-04-08 00:30:00,55.5,41.4,29.99,West,279,5.0,11.0,59,0.00,,,0.00,VWS V14.01,2013-04-08 04:30:00,
2013-04-08 00:32:00,55.5,41.9,29.99,West,279,3.0,5.0,60,0.00,,,0.00,VWS V14.01,2013-04-08 04:32:00,
2013-04-08 00:37:00,55.3,41.7,29.99,WSW,258,3.0,10.0,60,0.00,,,0.00,VWS V14.01,2013-04-08 04:37:00,
2013-04-08 00:42:00,55.2,41.6,29.99,SW,234,0.0,10.0,60,0.00,,,0.00,VWS V14.01,2013-04-08 04:42:00,
2013-04-08 00:45:00,55.2,41.6,29.99,WSW,242,0.0,10.0,60,0.00,,,0.00,VWS V14.01,2013-04-08 04:45:00,
2013-04-08 00:47:00,55.0,41.4,29.99,WSW,243,0.0,0.0,60,0.00,,,0.00,VWS V14.01,2013-04-08 04:47:00,
2013-04-08 00:52:00,54.7,41.5,29.99,West,267,2.0,6.0,61,0.00,,,0.00,VWS V14.01,2013-04-08 04:52:00,
2013-04-08 00:57:00,54.7,41.5,29.99,WSW,244,1.0,10.0,61,0.00,,,0.00,VWS V14.01,2013-04-08 04:57:00,
2013-04-08 01:00:00,54.6,41.4,29.99,WSW,248,0.0,10.0,61,0.00,,,0.00,VWS V14.01,2013-04-08 05:00:00,
2013-04-08 01:02:00,54.6,41.4,29.99,WSW,251,5.0,5.0,61,0.00,,,0.00,VWS V14.01,2013-04-08 05:02:00,
2013-04-08 01:07:00,54.6,41.9,29.99,West,274,4.0,8.0,62,0.00,,,0.00,VWS V14.01,2013-04-08 05:07:00,
2013-04-08 01:12:00,54.6,41.9,29.99,WSW,256,4.0,8.0,62,0.00,,,0.00,VWS V14.01,2013-04-08 05:12:00,
2013-04-08 01:15:00,54.6,41.9,29.99,WSW,253,0.0,8.0,62,0.00,,,0.00,VWS V14.01,2013-04-08 05:15:00,
2013-04-08 01:17:00,54.6,41.9,29.99,SW,229,3.0,7.0,62,0.00,,,0.00,VWS V14.01,2013-04-08 05:17:00,
2013-04-08 01:22:00,54.6,41.9,29.99,West,279,0.0,7.0,62,0.00,,,0.00,VWS V14.01,2013-04-08 05:22:00,
2013-04-08 01:27:00,54.7,42.0,29.99,West,261,4.0,7.0,62,0.00,,,0.00,VWS V14.01,2013-04-08 05:27:00,
2013-04-08 01:30:00,54.7,42.0,29.98,WSW,244,5.0,9.0,62,0.00,,,0.00,VWS V14.01,2013-04-08 05:30:00,
2013-04-08 01:32:00,54.7,42.0,29.98,SW,217,6.0,9.0,62,0.00,,,0.00,VWS V14.01,2013-04-08 05:32:00,
2013-04-08 01:37:00,54.9,42.1,29.98,WSW,256,10.0,11.0,62,0.00,,,0.00,VWS V14.01,2013-04-08 05:37:00,
2013-04-08 01:42:00,55.0,42.2,29.98,South,178,6.0,11.0,62,0.00,,,0.00,VWS V14.01,2013-04-08 05:42:00,
2013-04-08 01:45:00,55.0,41.8,29.98,West,259,6.0,11.0,61,0.00,,,0.00,VWS V14.01,2013-04-08 05:45:00,
2013-04-08 01:47:00,55.0,41.8,29.98,WSW,252,9.0,13.0,61,0.00,,,0.00,VWS V14.01,2013-04-08 05:47:00,
2013-04-08 01:52:00,55.0,42.2,29.98,WSW,257,4.0,13.0,62,0.00,,,0.00,VWS V14.01,2013-04-08 05:52:00,
2013-04-08 01:57:00,55.0,42.2,29.98,SSW,208,5.0,13.0,62,0.00,,,0.00,VWS V14.01,2013-04-08 05:57:00,
2013-04-08 02:00:00,55.0,42.2,29.98,West,277,0.0,13.0,62,0.00,,,0.00,VWS V14.01,2013-04-08 06:00:00,
2013-04-08 02:02:00,55.0,42.2,29.98,SSW,208,6.0,10.0,62,0.00,,,0.00,VWS V14.01,2013-04-08 06:02:00,
2013-04-08 02:07:00,55.0,42.2,29.98,SW,227,0.0,10.0,62,0.00,,,0.00,VWS V14.01,2013-04-08 06:07:00,
2013-04-08 02:12:00,54.9,42.1,29.98,SW,236,5.0,10.0,62,0.00,,,0.00,VWS V14.01,2013-04-08 06:12:00,
2013-04-08 02:15:00,54.9,42.1,29.98,West,278,0.0,10.0,62,0.00,,,0.00,VWS V14.01,2013-04-08 06:15:00,
2013-04-08 02:17:00,54.7,42.0,29.98,WSW,253,0.0,6.0,62,0.00,,,0.00,VWS V14.01,2013-04-08 06:17:00,
2013-04-08 02:22:00,54.7,42.0,29.98,West,277,2.0,7.0,62,0.00,,,0.00,VWS V14.01,2013-04-08 06:22:00,
2013-04-08 02:27:00,54.6,42.3,29.98,WSW,248,0.0,7.0,63,0.00,,,0.00,VWS V14.01,2013-04-08 06:27:00,
2013-04-08 02:30:00,54.4,42.1,29.98,WSW,252,0.0,7.0,63,0.00,,,0.00,VWS V14.01,2013-04-08 06:30:00,
2013-04-08 02:32:00,54.4,42.1,29.98,WSW,255,0.0,7.0,63,0.00,,,0.00,VWS V14.01,2013-04-08 06:32:00,
2013-04-08 02:37:00,54.1,41.8,29.98,West,275,0.0,7.0,63,0.00,,,0.00,VWS V14.01,2013-04-08 06:37:00,
2013-04-08 02:42:00,54.1,42.2,29.98,West,259,0.0,7.0,64,0.00,,,0.00,VWS V14.01,2013-04-08 06:42:00,
2013-04-08 02:45:00,54.1,42.2,29.98,West,259,0.0,7.0,64,0.00,,,0.00,VWS V14.01,2013-04-08 06:45:00,
2013-04-08 02:47:00,53.8,41.5,29.98,West,259,0.0,0.0,63,0.00,,,0.00,VWS V14.01,2013-04-08 06:47:00,
2013-04-08 02:52:00,53.7,41.8,29.98,West,259,0.0,0.0,64,0.00,,,0.00,VWS V14.01,2013-04-08 06:52:00,
2013-04-08 02:57:00,53.5,42.0,29.98,West,259,0.0,0.0,65,0.00,,,0.00,VWS V14.01,2013-04-08 06:57:00,
2013-04-08 03:00:00,53.4,41.5,29.98,West,259,0.0,0.0,64,0.00,,,0.00,VWS V14.01,2013-04-08 07:00:00,
2013-04-08 03:02:00,53.4,41.5,29.98,West,259,0.0,0.0,64,0.00,,,0.00,VWS V14.01,2013-04-08 07:02:00,
2013-04-08 03:07:00,53.3,41.5,29.98,West,259,0.0,0.0,64,0.00,,,0.00,VWS V14.01,2013-04-08 07:07:00,
2013-04-08 03:12:00,53.0,41.2,29.98,West,259,0.0,0.0,64,0.00,,,0.00,VWS V14.01,2013-04-08 07:12:00,
2013-04-08 03:15:00,52.8,41.4,29.98,West,259,0.0,0.0,65,0.00,,,0.00,VWS V14.01,2013-04-08 07:15:00,
2013-04-08 03:17:00,52.7,40.9,29.98,West,259,0.0,0.0,64,0.00,,,0.00,VWS V14.01,2013-04-08 07:17:00,
2013-04-08 03:22:00,52.2,41.2,29.98,West,259,0.0,0.0,66,0.00,,,0.00,VWS V14.01,2013-04-08 07:22:00,
2013-04-08 03:27:00,51.8,40.8,29.98,West,259,0.0,0.0,66,0.00,,,0.00,VWS V14.01,2013-04-08 07:27:00,
2013-04-08 03:30:00,51.5,41.3,29.98,West,259,0.0,0.0,68,0.00,,,0.00,VWS V14.01,2013-04-08 07:30:00,
2013-04-08 03:32:00,51.2,41.0,29.98,West,262,0.0,0.0,68,0.00,,,0.00,VWS V14.01,2013-04-08 07:32:00,
2013-04-08 03:37:00,50.4,41.0,29.98,West,262,0.0,0.0,70,0.00,,,0.00,VWS V14.01,2013-04-08 07:37:00,
2013-04-08 03:42:00,49.8,41.2,29.98,West,262,0.0,0.0,72,0.00,,,0.00,VWS V14.01,2013-04-08 07:42:00,
2013-04-08 03:45:00,49.6,41.0,29.99,West,262,0.0,0.0,72,0.00,,,0.00,VWS V14.01,2013-04-08 07:45:00,
2013-04-08 03:47:00,49.4,41.1,29.99,West,262,0.0,0.0,73,0.00,,,0.00,VWS V14.01,2013-04-08 07:47:00,
2013-04-08 03:52:00,49.0,40.7,29.99,West,262,0.0,0.0,73,0.00,,,0.00,VWS V14.01,2013-04-08 07:52:00,
2013-04-08 03:57:00,48.7,40.5,29.99,West,262,0.0,0.0,73,0.00,,,0.00,VWS V14.01,2013-04-08 07:57:00,
2013-04-08 04:00:00,48.4,40.2,29.99,West,262,0.0,0.0,73,0.00,,,0.00,VWS V14.01,2013-04-08 08:00:00,
2013-04-08 04:02:00,48.4,40.5,29.99,West,262,0.0,0.0,74,0.00,,,0.00,VWS V14.01,2013-04-08 08:02:00,
2013-04-08 04:07:00,47.9,40.4,29.99,West,262,0.0,0.0,75,0.00,,,0.00,VWS V14.01,2013-04-08 08:07:00,
2013-04-08 04:12:00,47.6,40.1,29.99,West,262,0.0,0.0,75,0.00,,,0.00,VWS V14.01,2013-04-08 08:12:00,
2013-04-08 04:15:00,47.3,40.1,30.00,West,262,0.0,0.0,76,0.00,,,0.00,VWS V14.01,2013-04-08 08:15:00,
2013-04-08 04:17:00,47.2,40.0,30.00,West,262,0.0,0.0,76,0.00,,,0.00,VWS V14.01,2013-04-08 08:17:00,
2013-04-08 04:22:00,46.7,39.9,30.00,West,262,0.0,0.0,77,0.00,,,0.00,VWS V14.01,2013-04-08 08:22:00,
2013-04-08 04:27:00,46.4,39.9,30.00,West,262,0.0,0.0,78,0.00,,,0.00,VWS V14.01,2013-04-08 08:27:00,
2013-04-08 04:30:00,46.2,40.1,29.99,West,262,0.0,0.0,79,0.00,,,0.00,VWS V14.01,2013-04-08 08:30:00,
2013-04-08 04:32:00,46.2,40.1,29.99,West,262,0.0,0.0,79,0.00,,,0.00,VWS V14.01,2013-04-08 08:32:00,
2013-04-08 04:37:00,45.9,39.8,29.99,West,262,0.0,0.0,79,0.00,,,0.00,VWS V14.01,2013-04-08 08:37:00,
2013-04-08 04:42:00,45.7,39.9,29.99,West,262,0.0,0.0,80,0.00,,,0.00,VWS V14.01,2013-04-08 08:42:00,
2013-04-08 04:45:00,45.6,39.8,29.99,West,262,0.0,0.0,80,0.00,,,0.00,VWS V14.01,2013-04-08 08:45:00,
2013-04-08 04:47:00,45.4,39.6,29.99,West,262,0.0,0.0,80,0.00,,,0.00,VWS V14.01,2013-04-08 08:47:00,
2013-04-08 04:52:00,45.1,39.6,29.99,West,262,0.0,1.0,81,0.00,,,0.00,VWS V14.01,2013-04-08 08:52:00,
2013-04-08 04:57:00,44.8,39.3,29.99,West,262,0.0,1.0,81,0.00,,,0.00,VWS V14.01,2013-04-08 08:57:00,
2013-04-08 05:00:00,44.7,39.2,29.99,NNE,19,2.0,3.0,81,0.00,,,0.00,VWS V14.01,2013-04-08 09:00:00,
2013-04-08 05:02:00,44.5,39.0,29.99,NNE,19,1.0,2.0,81,0.00,,,0.00,VWS V14.01,2013-04-08 09:02:00,
2013-04-08 05:07:00,44.3,39.2,29.99,NNE,19,0.0,2.0,82,0.00,,,0.00,VWS V14.01,2013-04-08 09:07:00,
2013-04-08 05:12:00,44.0,38.9,29.99,NNE,19,0.0,2.0,82,0.00,,,0.00,VWS V14.01,2013-04-08 09:12:00,
2013-04-08 05:15:00,44.0,39.2,30.00,NNE,19,0.0,2.0,83,0.00,,,0.00,VWS V14.01,2013-04-08 09:15:00,
2013-04-08 05:17:00,44.0,39.2,30.00,NNE,19,0.0,0.0,83,0.00,,,0.00,VWS V14.01,2013-04-08 09:17:00,
2013-04-08 05:22:00,43.8,39.3,30.00,NNE,19,1.0,1.0,84,0.00,,,0.00,VWS V14.01,2013-04-08 09:22:00,
2013-04-08 05:27:00,43.7,39.2,30.00,NNE,19,0.0,1.0,84,0.00,,,0.00,VWS V14.01,2013-04-08 09:27:00,
2013-04-08 05:30:00,43.7,39.2,30.00,NNE,19,0.0,1.0,84,0.00,,,0.00,VWS V14.01,2013-04-08 09:30:00,
2013-04-08 05:32:00,43.7,39.2,30.00,NNE,19,0.0,0.0,84,0.00,,,0.00,VWS V14.01,2013-04-08 09:32:00,
2013-04-08 05:37:00,43.7,39.2,30.00,NNE,19,0.0,0.0,84,0.00,,,0.00,VWS V14.01,2013-04-08 09:37:00,
2013-04-08 05:42:00,43.5,39.3,30.00,NNE,19,0.0,0.0,85,0.00,,,0.00,VWS V14.01,2013-04-08 09:42:00,
2013-04-08 05:45:00,43.5,39.3,30.01,NNE,19,0.0,0.0,85,0.00,,,0.00,VWS V14.01,2013-04-08 09:45:00,
2013-04-08 05:47:00,43.5,39.3,30.01,NNE,19,0.0,0.0,85,0.00,,,0.00,VWS V14.01,2013-04-08 09:47:00,
2013-04-08 05:52:00,43.5,39.3,30.01,NNE,19,0.0,0.0,85,0.00,,,0.00,VWS V14.01,2013-04-08 09:52:00,
2013-04-08 05:57:00,43.5,39.3,30.01,NNE,19,0.0,0.0,85,0.00,,,0.00,VWS V14.01,2013-04-08 09:57:00,
2013-04-08 06:00:00,43.4,39.2,30.01,NNE,19,0.0,0.0,85,0.00,,,0.00,VWS V14.01,2013-04-08 10:00:00,
2013-04-08 06:02:00,43.4,39.2,30.01,NNE,19,0.0,0.0,85,0.00,,,0.00,VWS V14.01,2013-04-08 10:02:00,
2013-04-08 06:07:00,43.4,39.2,30.01,NNE,19,0.0,0.0,85,0.00,,,0.00,VWS V14.01,2013-04-08 10:07:00,
2013-04-08 06:12:00,43.3,39.1,30.01,NNE,19,0.0,0.0,85,0.00,,,0.00,VWS V14.01,2013-04-08 10:12:00,
2013-04-08 06:15:00,43.3,39.4,30.02,NNE,19,0.0,0.0,86,0.00,,,0.00,VWS V14.01,2013-04-08 10:15:00,
2013-04-08 06:17:00,43.3,39.4,30.02,NNE,19,0.0,0.0,86,0.00,,,0.00,VWS V14.01,2013-04-08 10:17:00,
2013-04-08 06:22:00,43.1,39.2,30.02,NNE,19,0.0,0.0,86,0.00,,,0.00,VWS V14.01,2013-04-08 10:22:00,
2013-04-08 06:29:00,43.1,39.2,30.02,NNE,19,0.0,0.0,86,0.00,,,0.00,VWS V14.01,2013-04-08 10:29:00,
2013-04-08 06:30:00,43.1,39.2,30.03,NNE,19,0.0,0.0,86,0.00,,,0.00,VWS V14.01,2013-04-08 10:30:00,
2013-04-08 06:34:00,43.1,39.2,30.03,NNE,19,0.0,0.0,86,0.00,,,0.00,VWS V14.01,2013-04-08 10:34:00,
2013-04-08 06:39:00,43.0,39.1,30.03,NNE,19,0.0,0.0,86,0.00,,,0.00,VWS V14.01,2013-04-08 10:39:00,
2013-04-08 06:44:00,43.0,39.1,30.04,NNE,19,0.0,0.0,86,0.00,,,0.00,VWS V14.01,2013-04-08 10:44:00,
2013-04-08 06:45:00,43.0,39.1,30.04,NNE,19,0.0,0.0,86,0.00,,,0.00,VWS V14.01,2013-04-08 10:45:00,
2013-04-08 06:49:00,43.0,39.1,30.04,NNE,19,0.0,0.0,86,0.00,,,0.00,VWS V14.01,2013-04-08 10:49:00,
2013-04-08 06:54:00,43.0,39.1,30.04,NNE,19,0.0,0.0,86,0.00,,,0.00,VWS V14.01,2013-04-08 10:54:00,
2013-04-08 06:59:00,43.0,39.1,30.05,NNE,19,0.0,0.0,86,0.00,,,0.00,VWS V14.01,2013-04-08 10:59:00,
2013-04-08 07:00:00,43.0,39.1,30.05,NNE,19,0.0,2.0,86,0.00,,,0.00,VWS V14.01,2013-04-08 11:00:00,
2013-04-08 07:04:00,43.0,39.1,30.05,NNE,19,0.0,1.0,86,0.00,,,0.00,VWS V14.01,2013-04-08 11:04:00,
2013-04-08 07:09:00,43.1,39.5,30.05,NNE,19,0.0,1.0,87,0.00,,,0.00,VWS V14.01,2013-04-08 11:09:00,
2013-04-08 07:14:00,43.0,39.4,30.05,NNE,19,0.0,2.0,87,0.00,,,0.00,VWS V14.01,2013-04-08 11:14:00,
2013-04-08 07:15:00,43.0,39.4,30.05,NNE,19,0.0,2.0,87,0.00,,,0.00,VWS V14.01,2013-04-08 11:15:00,
2013-04-08 07:19:00,43.0,39.4,30.05,NNE,19,0.0,0.0,87,0.00,,,0.00,VWS V14.01,2013-04-08 11:19:00,
2013-04-08 07:24:00,42.8,39.2,30.05,NNE,19,0.0,0.0,87,0.00,,,0.00,VWS V14.01,2013-04-08 11:24:00,
2013-04-08 07:29:00,42.8,39.2,30.06,NNE,19,0.0,0.0,87,0.00,,,0.00,VWS V14.01,2013-04-08 11:29:00,
2013-04-08 07:30:00,42.8,39.2,30.06,NNE,19,0.0,0.0,87,0.00,,,0.00,VWS V14.01,2013-04-08 11:30:00,
2013-04-08 07:34:00,42.8,39.5,30.06,NNE,19,0.0,0.0,88,0.00,,,0.00,VWS V14.01,2013-04-08 11:34:00,
2013-04-08 07:39:00,43.0,39.7,30.06,NNE,19,0.0,0.0,88,0.00,,,0.00,VWS V14.01,2013-04-08 11:39:00,
2013-04-08 07:44:00,43.1,39.8,30.06,NNE,19,0.0,0.0,88,0.00,,,0.00,VWS V14.01,2013-04-08 11:44:00,
2013-04-08 07:45:00,43.1,39.8,30.06,NNE,19,0.0,2.0,88,0.00,,,0.00,VWS V14.01,2013-04-08 11:45:00,
2013-04-08 07:49:00,45.1,41.2,30.06,East,82,0.0,7.0,86,0.00,,,0.00,VWS V14.01,2013-04-08 11:49:00,
2013-04-08 07:54:00,47.0,40.5,30.06,NE,46,1.0,7.0,78,0.00,,,0.00,VWS V14.01,2013-04-08 11:54:00,
2013-04-08 07:59:00,48.1,40.6,30.07,ENE,58,1.0,7.0,75,0.00,,,0.00,VWS V14.01,2013-04-08 11:59:00,
2013-04-08 08:00:00,48.2,40.7,30.07,ENE,61,6.0,7.0,75,0.00,,,0.00,VWS V14.01,2013-04-08 12:00:00,
2013-04-08 08:04:00,49.1,40.5,30.07,ENE,60,6.0,8.0,72,0.00,,,0.00,VWS V14.01,2013-04-08 12:04:00,
2013-04-08 08:09:00,49.7,40.0,30.07,ENE,76,2.0,8.0,69,0.00,,,0.00,VWS V14.01,2013-04-08 12:09:00,
2013-04-08 08:14:00,50.0,39.9,30.07,ENE,63,2.0,8.0,68,0.00,,,0.00,VWS V14.01,2013-04-08 12:14:00,
2013-04-08 08:15:00,50.1,40.0,30.07,NNE,32,5.0,8.0,68,0.00,,,0.00,VWS V14.01,2013-04-08 12:15:00,
2013-04-08 08:19:00,50.1,39.6,30.07,NE,48,0.0,8.0,67,0.00,,,0.00,VWS V14.01,2013-04-08 12:19:00,
2013-04-08 08:24:00,50.4,39.5,30.07,ENE,57,8.0,10.0,66,0.00,,,0.00,VWS V14.01,2013-04-08 12:24:00,
2013-04-08 08:29:00,50.6,39.7,30.07,ENE,63,5.0,10.0,66,0.00,,,0.00,VWS V14.01,2013-04-08 12:29:00,
2013-04-08 08:30:00,50.6,39.3,30.07,NE,54,1.0,10.0,65,0.00,,,0.00,VWS V14.01,2013-04-08 12:30:00,
2013-04-08 08:34:00,50.7,39.4,30.07,NE,56,4.0,10.0,65,0.00,,,0.00,VWS V14.01,2013-04-08 12:34:00,
2013-04-08 08:39:00,51.2,39.8,30.07,North,360,0.0,10.0,65,0.00,,,0.00,VWS V14.01,2013-04-08 12:39:00,
2013-04-08 08:44:00,51.5,39.3,30.08,North,360,0.0,10.0,63,0.00,,,0.00,VWS V14.01,2013-04-08 12:44:00,
2013-04-08 08:45:00,51.5,39.7,30.08,North,360,0.0,10.0,64,0.00,,,0.00,VWS V14.01,2013-04-08 12:45:00,
2013-04-08 08:49:00,51.6,39.4,30.08,North,360,0.0,0.0,63,0.00,,,0.00,VWS V14.01,2013-04-08 12:49:00,
2013-04-08 08:54:00,51.3,39.5,30.08,NE,45,2.0,8.0,64,0.00,,,0.00,VWS V14.01,2013-04-08 12:54:00,
2013-04-08 08:59:00,52.1,39.5,30.08,North,11,4.0,8.0,62,0.00,,,0.00,VWS V14.01,2013-04-08 12:59:00,
2013-04-08 09:00:00,51.9,39.3,30.08,NE,53,7.0,8.0,62,0.00,,,0.00,VWS V14.01,2013-04-08 13:00:00,
2013-04-08 09:04:00,51.8,39.6,30.08,NE,55,0.0,7.0,63,0.00,,,0.00,VWS V14.01,2013-04-08 13:04:00,
2013-04-08 09:09:00,52.8,40.2,30.08,NE,43,0.0,7.0,62,0.00,,,0.00,VWS V14.01,2013-04-08 13:09:00,
2013-04-08 09:14:00,52.5,39.5,30.08,NE,54,0.0,9.0,61,0.00,,,0.00,VWS V14.01,2013-04-08 13:14:00,
2013-04-08 09:15:00,52.7,40.1,30.08,NE,54,0.0,9.0,62,0.00,,,0.00,VWS V14.01,2013-04-08 13:15:00,
2013-04-08 09:20:00,53.3,40.2,30.08,ENE,59,5.0,8.0,61,0.00,,,0.00,VWS V14.01,2013-04-08 13:20:00,
2013-04-08 09:24:00,53.0,39.5,30.08,NNE,30,0.0,8.0,60,0.00,,,0.00,VWS V14.01,2013-04-08 13:24:00,
2013-04-08 09:29:00,53.3,39.8,30.09,NNE,22,5.0,8.0,60,0.00,,,0.00,VWS V14.01,2013-04-08 13:29:00,
2013-04-08 09:30:00,53.3,39.8,30.09,NNE,22,2.0,8.0,60,0.00,,,0.00,VWS V14.01,2013-04-08 13:30:00,
2013-04-08 09:34:00,53.8,39.4,30.09,NNE,22,0.0,5.0,58,0.00,,,0.00,VWS V14.01,2013-04-08 13:34:00,
2013-04-08 09:39:00,54.1,39.2,30.09,NNE,24,5.0,6.0,57,0.00,,,0.00,VWS V14.01,2013-04-08 13:39:00,
2013-04-08 09:45:00,54.6,39.2,30.09,NNE,28,2.0,7.0,56,0.00,,,0.00,VWS V14.01,2013-04-08 13:45:00,
2013-04-08 09:50:00,54.4,39.0,30.09,NNE,25,5.0,7.0,56,0.00,,,0.00,VWS V14.01,2013-04-08 13:50:00,
2013-04-08 09:55:00,55.0,40.1,30.09,NNE,24,0.0,7.0,57,0.00,,,0.00,VWS V14.01,2013-04-08 13:55:00,
2013-04-08 10:00:00,55.5,40.1,30.09,North,5,5.0,7.0,56,0.00,,,0.00,VWS V14.01,2013-04-08 14:00:00,
2013-04-08 10:05:00,55.5,39.6,30.09,NNE,27,0.0,6.0,55,0.00,,,0.00,VWS V14.01,2013-04-08 14:05:00,
2013-04-08 10:11:00,55.9,39.5,30.09,NNE,25,0.0,6.0,54,0.00,,,0.00,VWS V14.01,2013-04-08 14:11:00,
2013-04-08 10:17:00,55.9,39.5,30.09,NNE,25,0.0,6.0,54,0.00,,,0.00,VWS V14.01,2013-04-08 14:17:00,
2013-04-08 10:22:00,56.7,40.3,30.08,NNE,17,0.0,0.0,54,0.00,,,0.00,VWS V14.01,2013-04-08 14:22:00,
2013-04-08 10:27:00,57.2,40.2,30.08,NNE,17,0.0,0.0,53,0.00,,,0.00,VWS V14.01,2013-04-08 14:27:00,
2013-04-08 10:30:00,58.5,40.5,30.08,NNE,16,1.0,1.0,51,0.00,,,0.00,VWS V14.01,2013-04-08 14:30:00,
2013-04-08 10:32:00,58.8,40.2,30.08,NNE,16,0.0,5.0,50,0.00,,,0.00,VWS V14.01,2013-04-08 14:32:00,
2013-04-08 10:37:00,58.5,39.9,30.08,NNE,19,0.0,6.0,50,0.00,,,0.00,VWS V14.01,2013-04-08 14:37:00,
2013-04-08 10:42:00,58.5,39.9,30.08,NNE,20,4.0,6.0,50,0.00,,,0.00,VWS V14.01,2013-04-08 14:42:00,
2013-04-08 10:45:00,58.6,40.5,30.08,NNE,21,0.0,6.0,51,0.00,,,0.00,VWS V14.01,2013-04-08 14:45:00,
2013-04-08 10:47:00,58.9,39.8,30.08,NNE,21,0.0,4.0,49,0.00,,,0.00,VWS V14.01,2013-04-08 14:47:00,
2013-04-08 10:52:00,59.7,41.0,30.08,NNE,32,0.0,5.0,50,0.00,,,0.00,VWS V14.01,2013-04-08 14:52:00,
2013-04-08 10:57:00,60.9,40.5,30.08,NE,34,0.0,5.0,47,0.00,,,0.00,VWS V14.01,2013-04-08 14:57:00,
2013-04-08 11:00:00,60.4,40.1,30.08,WSW,238,3.0,8.0,47,0.00,,,0.00,VWS V14.01,2013-04-08 15:00:00,
2013-04-08 11:02:00,60.1,39.8,30.08,West,273,5.0,6.0,47,0.00,,,0.00,VWS V14.01,2013-04-08 15:02:00,
2013-04-08 11:07:00,60.9,40.5,30.08,North,11,1.0,8.0,47,0.00,,,0.00,VWS V14.01,2013-04-08 15:07:00,
2013-04-08 11:12:00,61.4,39.3,30.08,West,281,4.0,9.0,44,0.00,,,0.00,VWS V14.01,2013-04-08 15:12:00,
2013-04-08 11:15:00,61.7,40.7,30.08,NNE,15,0.0,9.0,46,0.00,,,0.00,VWS V14.01,2013-04-08 15:15:00,
2013-04-08 11:17:00,61.5,39.4,30.08,SW,218,3.0,6.0,44,0.00,,,0.00,VWS V14.01,2013-04-08 15:17:00,
2013-04-08 11:22:00,61.8,39.7,30.08,West,274,0.0,8.0,44,0.00,,,0.00,VWS V14.01,2013-04-08 15:22:00,
2013-04-08 11:27:00,62.2,39.5,30.08,West,279,8.0,11.0,43,0.00,,,0.00,VWS V14.01,2013-04-08 15:27:00,
2013-04-08 11:30:00,62.3,38.9,30.08,WSW,253,1.0,11.0,42,0.00,,,0.00,VWS V14.01,2013-04-08 15:30:00,
2013-04-08 11:32:00,62.5,39.1,30.08,West,279,5.0,8.0,42,0.00,,,0.00,VWS V14.01,2013-04-08 15:32:00,
2013-04-08 11:37:00,62.8,39.4,30.08,West,263,0.0,9.0,42,0.00,,,0.00,VWS V14.01,2013-04-08 15:37:00,
2013-04-08 11:45:00,63.7,39.0,30.07,West,270,4.0,11.0,40,0.00,,,0.00,VWS V14.01,2013-04-08 15:45:00,
2013-04-08 12:00:00,64.9,39.4,30.07,West,270,3.0,10.0,39,0.00,,,0.00,VWS V14.01,2013-04-08 16:00:00,
2013-04-08 12:15:00,66.8,39.0,30.07,West,270,3.0,9.0,36,0.00,,,0.00,VWS V14.01,2013-04-08 16:15:00,
2013-04-08 12:42:00,67.6,38.3,30.07,WSW,255,4.0,4.0,34,0.00,,,0.00,VWS V14.01,2013-04-08 16:42:00,
2013-04-08 12:45:00,67.3,37.2,30.06,North,5,1.0,6.0,33,0.00,,,0.00,VWS V14.01,2013-04-08 16:45:00,
2013-04-08 12:47:00,68.0,38.6,30.06,North,355,0.0,1.0,34,0.00,,,0.00,VWS V14.01,2013-04-08 16:47:00,
2013-04-08 12:52:00,69.5,38.4,30.06,West,277,9.0,11.0,32,0.00,,,0.00,VWS V14.01,2013-04-08 16:52:00,
2013-04-08 12:57:00,68.0,37.1,30.06,West,274,6.0,11.0,32,0.00,,,0.00,VWS V14.01,2013-04-08 16:57:00,
2013-04-08 13:00:00,68.1,37.2,30.05,SW,221,1.0,11.0,32,0.00,,,0.00,VWS V14.01,2013-04-08 17:00:00,
2013-04-08 13:02:00,68.1,37.9,30.05,SW,217,0.0,1.0,33,0.00,,,0.00,VWS V14.01,2013-04-08 17:02:00,
2013-04-08 13:07:00,68.6,37.6,30.05,WNW,288,0.0,1.0,32,0.00,,,0.00,VWS V14.01,2013-04-08 17:07:00,
2013-04-08 13:12:00,69.1,38.0,30.05,West,279,0.0,6.0,32,0.00,,,0.00,VWS V14.01,2013-04-08 17:12:00,
2013-04-08 13:15:00,69.3,37.4,30.04,West,272,6.0,6.0,31,0.00,,,0.00,VWS V14.01,2013-04-08 17:15:00,
2013-04-08 13:17:00,69.1,38.0,30.04,WSW,253,1.0,6.0,32,0.00,,,0.00,VWS V14.01,2013-04-08 17:17:00,
2013-04-08 13:22:00,71.1,37.3,30.04,West,276,7.0,7.0,29,0.00,,,0.00,VWS V14.01,2013-04-08 17:22:00,
2013-04-08 13:27:00,71.0,37.2,30.04,WSW,238,0.0,8.0,29,0.00,,,0.00,VWS V14.01,2013-04-08 17:27:00,
2013-04-08 13:30:00,70.6,36.8,30.04,West,275,0.0,8.0,29,0.00,,,0.00,VWS V14.01,2013-04-08 17:30:00,
2013-04-08 13:32:00,70.8,37.9,30.04,WSW,257,5.0,12.0,30,0.00,,,0.00,VWS V14.01,2013-04-08 17:32:00,
2013-04-08 13:37:00,70.1,36.4,30.04,WSW,248,8.0,12.0,29,0.00,,,0.00,VWS V14.01,2013-04-08 17:37:00,
2013-04-08 13:42:00,70.0,35.4,30.04,SW,219,5.0,12.0,28,0.00,,,0.00,VWS V14.01,2013-04-08 17:42:00,
2013-04-08 13:45:00,70.6,36.8,30.03,WSW,256,3.0,12.0,29,0.00,,,0.00,VWS V14.01,2013-04-08 17:45:00,
2013-04-08 13:47:00,71.0,35.4,30.03,West,279,0.0,4.0,27,0.00,,,0.00,VWS V14.01,2013-04-08 17:47:00,
2013-04-08 13:52:00,71.7,36.0,30.03,NW,323,8.0,13.0,27,0.00,,,0.00,VWS V14.01,2013-04-08 17:52:00,
2013-04-08 13:58:00,71.8,36.0,30.03,North,355,5.0,13.0,27,0.00,,,0.00,VWS V14.01,2013-04-08 17:58:00,
2013-04-08 14:02:00,72.2,37.3,30.02,NNW,344,7.0,13.0,28,0.00,,,0.00,VWS V14.01,2013-04-08 18:02:00,
2013-04-08 14:07:00,71.7,36.9,30.02,SW,225,1.0,16.0,28,0.00,,,0.00,VWS V14.01,2013-04-08 18:07:00,
2013-04-08 14:12:00,72.2,38.2,30.02,West,273,0.0,16.0,29,0.00,,,0.00,VWS V14.01,2013-04-08 18:12:00,
2013-04-08 14:15:00,72.3,36.5,30.02,West,273,0.0,16.0,27,0.00,,,0.00,VWS V14.01,2013-04-08 18:15:00,
2013-04-08 14:17:00,73.2,38.2,30.02,West,274,0.0,0.0,28,0.00,,,0.00,VWS V14.01,2013-04-08 18:17:00,
2013-04-08 14:22:00,72.7,36.8,30.02,West,276,5.0,18.0,27,0.00,,,0.00,VWS V14.01,2013-04-08 18:22:00,
2013-04-08 14:27:00,72.5,36.7,30.02,West,266,5.0,18.0,27,0.00,,,0.00,VWS V14.01,2013-04-08 18:27:00,
2013-04-08 14:30:00,72.9,37.9,30.02,WSW,256,6.0,18.0,28,0.00,,,0.00,VWS V14.01,2013-04-08 18:30:00,
2013-04-08 14:32:00,73.2,38.2,30.02,WSW,256,5.0,6.0,28,0.00,,,0.00,VWS V14.01,2013-04-08 18:32:00,
2013-04-08 14:37:00,73.5,37.5,30.02,WNW,300,4.0,7.0,27,0.00,,,0.00,VWS V14.01,2013-04-08 18:37:00,
2013-04-08 14:42:00,73.7,36.7,30.02,WNW,289,0.0,7.0,26,0.00,,,0.00,VWS V14.01,2013-04-08 18:42:00,
2013-04-08 14:45:00,74.4,37.3,30.00,WNW,290,0.0,7.0,26,0.00,,,0.00,VWS V14.01,2013-04-08 18:45:00,
2013-04-08 14:47:00,74.8,36.7,30.00,WNW,290,0.0,0.0,25,0.00,,,0.00,VWS V14.01,2013-04-08 18:47:00,
2013-04-08 14:52:00,74.2,36.2,30.00,West,268,0.0,13.0,25,0.00,,,0.00,VWS V14.01,2013-04-08 18:52:00,
2013-04-08 14:57:00,74.8,35.6,30.00,NNW,340,7.0,13.0,24,0.00,,,0.00,VWS V14.01,2013-04-08 18:57:00,
2013-04-08 15:00:00,74.1,36.1,30.00,North,11,0.0,13.0,25,0.00,,,0.00,VWS V14.01,2013-04-08 19:00:00,
2013-04-08 15:02:00,74.4,36.3,30.00,West,277,5.0,5.0,25,0.00,,,0.00,VWS V14.01,2013-04-08 19:02:00,
2013-04-08 15:08:00,74.4,35.3,30.00,WSW,242,10.0,13.0,24,0.00,,,0.00,VWS V14.01,2013-04-08 19:08:00,
2013-04-08 15:13:00,74.1,36.1,30.00,West,279,5.0,13.0,25,0.00,,,0.00,VWS V14.01,2013-04-08 19:13:00,
2013-04-08 15:15:00,74.2,35.1,30.00,WSW,257,7.0,13.0,24,0.00,,,0.00,VWS V14.01,2013-04-08 19:15:00,
2013-04-08 15:18:00,73.9,34.9,30.00,West,276,0.0,7.0,24,0.00,,,0.00,VWS V14.01,2013-04-08 19:18:00,
2013-04-08 15:23:00,74.6,35.5,30.00,West,277,4.0,7.0,24,0.00,,,0.00,VWS V14.01,2013-04-08 19:23:00,
2013-04-08 15:28:00,74.6,35.5,30.00,West,276,9.0,13.0,24,0.00,,,0.00,VWS V14.01,2013-04-08 19:28:00,
2013-04-08 15:30:00,74.4,35.3,29.99,West,280,6.0,15.0,24,0.00,,,0.00,VWS V14.01,2013-04-08 19:30:00,
2013-04-08 15:32:00,74.1,35.0,29.99,WSW,244,11.0,11.0,24,0.00,,,0.00,VWS V14.01,2013-04-08 19:32:00,
2013-04-08 15:37:00,74.2,36.2,29.99,West,272,6.0,11.0,25,0.00,,,0.00,VWS V14.01,2013-04-08 19:37:00,
2013-04-08 15:42:00,74.9,35.7,29.99,WNW,293,5.0,11.0,24,0.00,,,0.00,VWS V14.01,2013-04-08 19:42:00,
2013-04-08 15:45:00,75.1,36.9,29.99,West,267,5.0,11.0,25,0.00,,,0.00,VWS V14.01,2013-04-08 19:45:00,
2013-04-08 15:47:00,75.1,35.9,29.99,WSW,256,8.0,12.0,24,0.00,,,0.00,VWS V14.01,2013-04-08 19:47:00,
2013-04-08 15:52:00,74.8,35.6,29.99,WSW,250,9.0,14.0,24,0.00,,,0.00,VWS V14.01,2013-04-08 19:52:00,
2013-04-08 15:57:00,74.6,37.5,29.99,West,263,8.0,14.0,26,0.00,,,0.00,VWS V14.01,2013-04-08 19:57:00,
2013-04-08 16:00:00,74.6,35.5,29.99,NW,313,2.0,14.0,24,0.00,,,0.00,VWS V14.01,2013-04-08 20:00:00,
2013-04-08 16:02:00,74.6,35.5,29.99,West,259,5.0,11.0,24,0.00,,,0.00,VWS V14.01,2013-04-08 20:02:00,
2013-04-08 16:07:00,74.9,37.7,29.99,West,275,13.0,13.0,26,0.00,,,0.00,VWS V14.01,2013-04-08 20:07:00,
2013-04-08 16:12:00,75.1,36.9,29.99,West,263,1.0,16.0,25,0.00,,,0.00,VWS V14.01,2013-04-08 20:12:00,
2013-04-08 16:15:00,75.1,35.9,29.98,West,265,7.0,16.0,24,0.00,,,0.00,VWS V14.01,2013-04-08 20:15:00,
2013-04-08 16:17:00,74.9,35.7,29.98,West,275,0.0,9.0,24,0.00,,,0.00,VWS V14.01,2013-04-08 20:17:00,
2013-04-08 16:22:00,75.1,35.9,29.98,WSW,254,7.0,9.0,24,0.00,,,0.00,VWS V14.01,2013-04-08 20:22:00,
2013-04-08 16:27:00,75.5,37.2,29.98,WSW,238,10.0,10.0,25,0.00,,,0.00,VWS V14.01,2013-04-08 20:27:00,
2013-04-08 16:30:00,75.6,37.3,29.97,West,279,6.0,11.0,25,0.00,,,0.00,VWS V14.01,2013-04-08 20:30:00,
2013-04-08 16:32:00,75.3,36.0,29.97,West,275,7.0,14.0,24,0.00,,,0.00,VWS V14.01,2013-04-08 20:32:00,
2013-04-08 16:37:00,75.1,36.9,29.97,West,277,5.0,14.0,25,0.00,,,0.00,VWS V14.01,2013-04-08 20:37:00,
2013-04-08 16:42:00,75.3,37.1,29.97,WSW,244,6.0,14.0,25,0.00,,,0.00,VWS V14.01,2013-04-08 20:42:00,
2013-04-08 16:45:00,75.3,37.1,29.97,West,261,8.0,14.0,25,0.00,,,0.00,VWS V14.01,2013-04-08 20:45:00,
2013-04-08 16:47:00,75.6,37.3,29.97,West,278,6.0,9.0,25,0.00,,,0.00,VWS V14.01,2013-04-08 20:47:00,
2013-04-08 16:52:00,75.6,37.3,29.97,West,271,7.0,14.0,25,0.00,,,0.00,VWS V14.01,2013-04-08 20:52:00,
2013-04-08 16:57:00,75.5,37.2,29.97,West,264,6.0,14.0,25,0.00,,,0.00,VWS V14.01,2013-04-08 20:57:00,
2013-04-08 17:00:00,75.3,38.1,29.97,WSW,245,7.0,14.0,26,0.00,,,0.00,VWS V14.01,2013-04-08 21:00:00,
2013-04-08 17:02:00,75.3,38.1,29.97,WSW,249,0.0,9.0,26,0.00,,,0.00,VWS V14.01,2013-04-08 21:02:00,
2013-04-08 17:07:00,76.0,38.7,29.97,West,262,2.0,9.0,26,0.00,,,0.00,VWS V14.01,2013-04-08 21:07:00,
2013-04-08 17:12:00,75.8,38.5,29.97,West,277,0.0,11.0,26,0.00,,,0.00,VWS V14.01,2013-04-08 21:12:00,
2013-04-08 17:15:00,76.0,38.7,29.97,West,264,0.0,11.0,26,0.00,,,0.00,VWS V14.01,2013-04-08 21:15:00,
2013-04-08 17:17:00,76.3,38.9,29.97,West,277,8.0,8.0,26,0.00,,,0.00,VWS V14.01,2013-04-08 21:17:00,
2013-04-08 17:22:00,75.8,39.5,29.97,South,191,0.0,9.0,27,0.00,,,0.00,VWS V14.01,2013-04-08 21:22:00,
2013-04-08 17:27:00,75.8,39.5,29.97,WNW,298,0.0,10.0,27,0.00,,,0.00,VWS V14.01,2013-04-08 21:27:00,
2013-04-08 17:30:00,76.0,39.6,29.97,East,84,5.0,10.0,27,0.00,,,0.00,VWS V14.01,2013-04-08 21:30:00,
2013-04-08 17:32:00,75.5,39.2,29.97,NE,53,0.0,8.0,27,0.00,,,0.00,VWS V14.01,2013-04-08 21:32:00,
2013-04-08 17:37:00,75.6,40.2,29.97,NW,315,4.0,8.0,28,0.00,,,0.00,VWS V14.01,2013-04-08 21:37:00,
2013-04-08 17:45:00,75.1,40.7,29.97,West,270,5.0,15.0,29,0.00,,,0.00,VWS V14.01,2013-04-08 21:45:00,
2013-04-08 18:06:00,74.4,41.8,29.97,WSW,244,2.0,5.0,31,0.00,,,0.00,VWS V14.01,2013-04-08 22:06:00,
2013-04-08 18:11:00,74.2,41.7,29.97,WNW,284,4.0,8.0,31,0.00,,,0.00,VWS V14.01,2013-04-08 22:11:00,
2013-04-08 18:15:00,74.1,42.4,29.97,WNW,290,0.0,8.0,32,0.00,,,0.00,VWS V14.01,2013-04-08 22:15:00,
2013-04-08 18:16:00,74.1,42.4,29.97,WNW,296,0.0,1.0,32,0.00,,,0.00,VWS V14.01,2013-04-08 22:16:00,
2013-04-08 18:21:00,74.1,42.4,29.97,WSW,255,3.0,4.0,32,0.00,,,0.00,VWS V14.01,2013-04-08 22:21:00,
2013-04-08 18:26:00,73.7,42.0,29.97,WSW,257,5.0,8.0,32,0.00,,,0.00,VWS V14.01,2013-04-08 22:26:00,
2013-04-08 18:30:00,73.7,42.8,29.97,NNW,334,0.0,8.0,33,0.00,,,0.00,VWS V14.01,2013-04-08 22:30:00,
2013-04-08 18:32:00,73.7,42.8,29.97,NNW,334,0.0,0.0,33,0.00,,,0.00,VWS V14.01,2013-04-08 22:32:00,
2013-04-08 18:37:00,73.7,43.6,29.97,SE,134,0.0,4.0,34,0.00,,,0.00,VWS V14.01,2013-04-08 22:37:00,
2013-04-08 18:42:00,73.5,43.4,29.97,West,279,0.0,6.0,34,0.00,,,0.00,VWS V14.01,2013-04-08 22:42:00,
2013-04-08 18:45:00,73.4,43.3,29.97,WNW,287,8.0,10.0,34,0.00,,,0.00,VWS V14.01,2013-04-08 22:45:00,
2013-04-08 18:47:00,73.4,43.3,29.97,WSW,250,0.0,10.0,34,0.00,,,0.00,VWS V14.01,2013-04-08 22:47:00,
2013-04-08 18:52:00,73.0,43.0,29.97,NW,317,5.0,10.0,34,0.00,,,0.00,VWS V14.01,2013-04-08 22:52:00,
2013-04-08 18:57:00,72.9,43.7,29.97,WNW,302,5.0,10.0,35,0.00,,,0.00,VWS V14.01,2013-04-08 22:57:00,
2013-04-08 19:00:00,72.9,43.7,29.97,NW,315,0.0,10.0,35,0.00,,,0.00,VWS V14.01,2013-04-08 23:00:00,
2013-04-08 19:02:00,72.7,43.5,29.97,NW,310,0.0,1.0,35,0.00,,,0.00,VWS V14.01,2013-04-08 23:02:00,
2013-04-08 19:07:00,72.5,44.1,29.97,West,271,1.0,6.0,36,0.00,,,0.00,VWS V14.01,2013-04-08 23:07:00,
2013-04-08 19:12:00,72.3,43.9,29.97,WNW,297,0.0,7.0,36,0.00,,,0.00,VWS V14.01,2013-04-08 23:12:00,
2013-04-08 19:15:00,72.2,44.5,29.97,NW,304,0.0,7.0,37,0.00,,,0.00,VWS V14.01,2013-04-08 23:15:00,
2013-04-08 19:17:00,72.2,43.8,29.97,NW,304,0.0,0.0,36,0.00,,,0.00,VWS V14.01,2013-04-08 23:17:00,
2013-04-08 19:22:00,72.0,44.3,29.97,NW,304,0.0,0.0,37,0.00,,,0.00,VWS V14.01,2013-04-08 23:22:00,
2013-04-08 19:27:00,71.8,44.2,29.97,NW,304,0.0,0.0,37,0.00,,,0.00,VWS V14.01,2013-04-08 23:27:00,
2013-04-08 19:30:00,71.7,44.8,29.97,NW,304,0.0,0.0,38,0.00,,,0.00,VWS V14.01,2013-04-08 23:30:00,
2013-04-08 19:32:00,71.7,44.8,29.97,NW,304,0.0,0.0,38,0.00,,,0.00,VWS V14.01,2013-04-08 23:32:00,
2013-04-08 19:37:00,71.3,45.1,29.97,NW,321,0.0,1.0,39,0.00,,,0.00,VWS V14.01,2013-04-08 23:37:00,
2013-04-08 19:42:00,71.0,44.8,29.97,NW,321,0.0,1.0,39,0.00,,,0.00,VWS V14.01,2013-04-08 23:42:00,
2013-04-08 19:45:00,70.8,44.0,29.97,NW,313,0.0,4.0,38,0.00,,,0.00,VWS V14.01,2013-04-08 23:45:00,
2013-04-08 19:47:00,70.8,44.6,29.97,NW,313,0.0,0.0,39,0.00,,,0.00,VWS V14.01,2013-04-08 23:47:00,
2013-04-08 19:52:00,70.6,44.5,29.97,North,10,0.0,1.0,39,0.00,,,0.00,VWS V14.01,2013-04-08 23:52:00,
2013-04-08 19:57:00,70.0,45.2,29.97,NE,47,11.0,11.0,41,0.00,,,0.00,VWS V14.01,2013-04-08 23:57:00,
2013-04-08 20:00:00,69.8,46.3,29.98,ENE,65,6.0,11.0,43,0.00,,,0.00,VWS V14.01,2013-04-09 00:00:00,
2013-04-08 20:02:00,69.6,46.1,29.98,ENE,67,8.0,9.0,43,0.00,,,0.00,VWS V14.01,2013-04-09 00:02:00,
2013-04-08 20:07:00,69.3,47.1,29.98,NE,51,9.0,12.0,45,0.00,,,0.00,VWS V14.01,2013-04-09 00:07:00,
2013-04-08 20:12:00,69.0,47.4,29.98,ENE,59,8.0,12.0,46,0.00,,,0.00,VWS V14.01,2013-04-09 00:12:00,
2013-04-08 20:15:00,68.8,47.8,29.97,NE,49,5.0,12.0,47,0.00,,,0.00,VWS V14.01,2013-04-09 00:15:00,
2013-04-08 20:17:00,68.6,47.6,29.97,ENE,57,5.0,11.0,47,0.00,,,0.00,VWS V14.01,2013-04-09 00:17:00,
2013-04-08 20:22:00,68.3,47.9,29.97,NE,43,7.0,11.0,48,0.00,,,0.00,VWS V14.01,2013-04-09 00:22:00,
2013-04-08 20:27:00,68.0,47.6,29.97,NE,53,8.0,11.0,48,0.00,,,0.00,VWS V14.01,2013-04-09 00:27:00,
2013-04-08 20:30:00,67.8,48.0,29.97,ENE,57,8.0,11.0,49,0.00,,,0.00,VWS V14.01,2013-04-09 00:30:00,
2013-04-08 20:32:00,67.8,48.0,29.97,NE,45,0.0,12.0,49,0.00,,,0.00,VWS V14.01,2013-04-09 00:32:00,
2013-04-08 20:37:00,67.6,47.8,29.97,NE,47,7.0,12.0,49,0.00,,,0.00,VWS V14.01,2013-04-09 00:37:00,
2013-04-08 20:42:00,67.5,48.2,29.97,NE,42,8.0,12.0,50,0.00,,,0.00,VWS V14.01,2013-04-09 00:42:00,
2013-04-08 20:45:00,67.3,48.0,29.98,NE,37,6.0,12.0,50,0.00,,,0.00,VWS V14.01,2013-04-09 00:45:00,
2013-04-08 20:47:00,67.3,48.0,29.98,NNE,32,8.0,9.0,50,0.00,,,0.00,VWS V14.01,2013-04-09 00:47:00,
2013-04-08 20:52:00,67.3,48.0,29.98,NE,40,1.0,9.0,50,0.00,,,0.00,VWS V14.01,2013-04-09 00:52:00,
2013-04-08 20:57:00,67.1,47.9,29.98,NE,47,4.0,9.0,50,0.00,,,0.00,VWS V14.01,2013-04-09 00:57:00,
2013-04-08 21:00:00,67.0,48.3,29.98,NE,46,6.0,9.0,51,0.00,,,0.00,VWS V14.01,2013-04-09 01:00:00,
2013-04-08 21:02:00,67.0,48.3,29.98,NE,53,5.0,9.0,51,0.00,,,0.00,VWS V14.01,2013-04-09 01:02:00,
2013-04-08 21:07:00,66.8,48.1,29.98,NE,51,11.0,13.0,51,0.00,,,0.00,VWS V14.01,2013-04-09 01:07:00,
2013-04-08 21:12:00,66.6,47.9,29.98,NE,45,7.0,15.0,51,0.00,,,0.00,VWS V14.01,2013-04-09 01:12:00,
2013-04-08 21:15:00,66.6,47.9,29.97,NNE,24,11.0,15.0,51,0.00,,,0.00,VWS V14.01,2013-04-09 01:15:00,
2013-04-08 21:17:00,66.6,47.9,29.97,NE,46,13.0,15.0,51,0.00,,,0.00,VWS V14.01,2013-04-09 01:17:00,
2013-04-08 21:22:00,66.5,47.8,29.97,NE,36,8.0,15.0,51,0.00,,,0.00,VWS V14.01,2013-04-09 01:22:00,
2013-04-08 21:27:00,66.5,47.8,29.97,North,5,9.0,15.0,51,0.00,,,0.00,VWS V14.01,2013-04-09 01:27:00,
2013-04-08 21:30:00,66.5,47.8,29.98,NE,53,7.0,15.0,51,0.00,,,0.00,VWS V14.01,2013-04-09 01:30:00,
2013-04-08 21:32:00,66.5,47.8,29.98,NNE,33,4.0,10.0,51,0.00,,,0.00,VWS V14.01,2013-04-09 01:32:00,
2013-04-08 21:37:00,66.3,47.7,29.98,NNE,26,8.0,11.0,51,0.00,,,0.00,VWS V14.01,2013-04-09 01:37:00,
2013-04-08 21:42:00,66.0,47.9,29.98,NNE,18,0.0,11.0,52,0.00,,,0.00,VWS V14.01,2013-04-09 01:42:00,
2013-04-08 21:45:00,66.0,47.9,29.98,NE,39,7.0,11.0,52,0.00,,,0.00,VWS V14.01,2013-04-09 01:45:00,
2013-04-08 21:47:00,66.0,47.9,29.98,NE,45,0.0,8.0,52,0.00,,,0.00,VWS V14.01,2013-04-09 01:47:00,
2013-04-08 21:52:00,65.8,47.7,29.98,NE,36,5.0,8.0,52,0.00,,,0.00,VWS V14.01,2013-04-09 01:52:00,
2013-04-08 21:57:00,65.7,47.6,29.98,NNW,331,0.0,8.0,52,0.00,,,0.00,VWS V14.01,2013-04-09 01:57:00,
2013-04-08 22:00:00,65.7,48.1,29.98,North,5,0.0,8.0,53,0.00,,,0.00,VWS V14.01,2013-04-09 02:00:00,
2013-04-08 22:02:00,65.5,47.9,29.98,North,5,0.0,0.0,53,0.00,,,0.00,VWS V14.01,2013-04-09 02:02:00,
2013-04-08 22:07:00,65.5,47.9,29.98,NNE,24,0.0,6.0,53,0.00,,,0.00,VWS V14.01,2013-04-09 02:07:00,
2013-04-08 22:12:00,65.5,47.9,29.98,NNE,24,0.0,6.0,53,0.00,,,0.00,VWS V14.01,2013-04-09 02:12:00,
2013-04-08 22:15:00,65.4,47.8,29.98,NNE,24,0.0,6.0,53,0.00,,,0.00,VWS V14.01,2013-04-09 02:15:00,
2013-04-08 22:17:00,65.4,47.8,29.98,NNE,24,0.0,0.0,53,0.00,,,0.00,VWS V14.01,2013-04-09 02:17:00,
2013-04-08 22:22:00,65.2,48.2,29.98,NNE,24,0.0,1.0,54,0.00,,,0.00,VWS V14.01,2013-04-09 02:22:00,
2013-04-08 22:27:00,65.0,48.0,29.98,NE,53,0.0,5.0,54,0.00,,,0.00,VWS V14.01,2013-04-09 02:27:00,
2013-04-08 22:30:00,65.0,48.0,29.98,NE,53,0.0,5.0,54,0.00,,,0.00,VWS V14.01,2013-04-09 02:30:00,
2013-04-08 22:32:00,64.9,48.4,29.98,NE,53,0.0,0.0,55,0.00,,,0.00,VWS V14.01,2013-04-09 02:32:00,
2013-04-08 22:37:00,64.7,47.7,29.98,NE,53,0.0,0.0,54,0.00,,,0.00,VWS V14.01,2013-04-09 02:37:00,
2013-04-08 22:42:00,64.5,48.0,29.98,NE,53,0.0,0.0,55,0.00,,,0.00,VWS V14.01,2013-04-09 02:42:00,
2013-04-08 22:45:00,64.4,48.4,29.97,NE,53,0.0,0.0,56,0.00,,,0.00,VWS V14.01,2013-04-09 02:45:00,
2013-04-08 22:47:00,64.2,47.7,29.97,NE,53,0.0,0.0,55,0.00,,,0.00,VWS V14.01,2013-04-09 02:47:00,
2013-04-08 22:52:00,64.1,48.1,29.97,NE,53,1.0,5.0,56,0.00,,,0.00,VWS V14.01,2013-04-09 02:52:00,
2013-04-08 22:57:00,63.7,48.2,29.97,NE,53,0.0,5.0,57,0.00,,,0.00,VWS V14.01,2013-04-09 02:57:00,
2013-04-08 23:00:00,63.7,48.2,29.97,NE,53,0.0,5.0,57,0.00,,,0.00,VWS V14.01,2013-04-09 03:00:00,
2013-04-08 23:02:00,63.6,48.1,29.97,NE,53,0.0,4.0,57,0.00,,,0.00,VWS V14.01,2013-04-09 03:02:00,
2013-04-08 23:07:00,63.3,48.3,29.97,NE,53,0.0,4.0,58,0.00,,,0.00,VWS V14.01,2013-04-09 03:07:00,
2013-04-08 23:12:00,63.1,48.6,29.97,NE,53,0.0,6.0,59,0.00,,,0.00,VWS V14.01,2013-04-09 03:12:00,
2013-04-08 23:15:00,62.9,48.4,29.96,NE,53,0.0,6.0,59,0.00,,,0.00,VWS V14.01,2013-04-09 03:15:00,
2013-04-08 23:17:00,62.9,48.4,29.96,NE,53,0.0,1.0,59,0.00,,,0.00,VWS V14.01,2013-04-09 03:17:00,
2013-04-08 23:22:00,62.8,48.3,29.96,NE,53,4.0,4.0,59,0.00,,,0.00,VWS V14.01,2013-04-09 03:22:00,
2013-04-08 23:27:00,62.8,48.3,29.96,NE,53,0.0,4.0,59,0.00,,,0.00,VWS V14.01,2013-04-09 03:27:00,
2013-04-08 23:30:00,62.6,48.1,29.96,NE,53,0.0,4.0,59,0.00,,,0.00,VWS V14.01,2013-04-09 03:30:00,
2013-04-08 23:32:00,62.6,48.1,29.96,NE,53,0.0,0.0,59,0.00,,,0.00,VWS V14.01,2013-04-09 03:32:00,
2013-04-08 23:37:00,62.6,48.1,29.96,NE,53,0.0,0.0,59,0.00,,,0.00,VWS V14.01,2013-04-09 03:37:00,
2013-04-08 23:42:00,62.5,48.0,29.96,NE,53,0.0,0.0,59,0.00,,,0.00,VWS V14.01,2013-04-09 03:42:00,
2013-04-08 23:45:00,62.3,47.8,29.95,NE,53,0.0,0.0,59,0.00,,,0.00,VWS V14.01,2013-04-09 03:45:00,
2013-04-08 23:47:00,62.3,47.8,29.95,NE,53,0.0,0.0,59,0.00,,,0.00,VWS V14.01,2013-04-09 03:47:00,
2013-04-08 23:52:00,62.2,48.2,29.95,NE,53,0.0,0.0,60,0.00,,,0.00,VWS V14.01,2013-04-09 03:52:00,
2013-04-08 23:57:00,62.0,48.0,29.95,NE,53,0.0,1.0,60,0.00,,,0.00,VWS V14.01,2013-04-09 03:57:00,